Location: *
(49.7115°N, 15.0136°E)
Time: 09:25:58
(UTC+00:00)

STARLINK-1037 - Pass Details

Date: 27 February 2020
Orbit: 547 x 551 km, 53.0° (Epoch: 27 March)

Event Time Altitude Azimuth Distance (km) Brightness Sun altitude
Rises 17:18:17 0° 245° (WSW) 2,707 8.7 -7.3°
Reaches altitude 10° 17:20:30 10° 245° (WSW) 1,816 7.6 -7.6°
Maximum altitude 17:24:38 88° 156° (SSE) 554 3.6 -8.3°
Enters shadow 17:28:43 10° 68° (ENE) 1,795 5.6 -8.9°
